Regional Weather Roundup
Issued by NWS Green Bay, WI

Home | Current Version | Previous Version | Text Only | Print | Product List | Glossary On
Versions: 1 2 3 4 5 6 7 8 9 10 11 12 13 14 15 16 17 18 19 20 21 22 23 24 25 26 27 28 29 30 31 32 33 34 35 36 37 38 39 40 41 42 43 44 45 46 47 48 49 50
000
ASUS43 KGRB 150210
RWRGRB

NORTH-CENTRAL AND NORTHEAST WISCONSIN REGIONAL WEATHER ROUNDUP
NATIONAL WEATHER SERVICE GREEN BAY WI
900 PM CDT SUN SEP 14 2014

WIZ005-009-010>012-018-019-150300-
NORTH CENTRAL WISCONSIN

CITY           SKY/WX    TMP DP  RH WIND       PRES   REMARKS
IRONWOOD       MOCLDY    45  45 100 SW3       30.06S
MANITOWISH WTR PTCLDY    43  43 100 CALM      30.09R
ARBOR VITAE    PTCLDY    52  43  72 NW5       30.09S
EAGLE RIVER    MOCLDY    49  40  71 NW3       30.08R
LAND O LAKES   PTCLDY    49  43  79 NW5       30.09S
RHINELANDER    PTCLDY    47  41  80 W5        30.09R
PHILLIPS       PTCLDY    46  43  90 CALM      30.10R
ANTIGO         PTCLDY    51  44  75 W6        30.10R
TOMAHAWK       MOCLDY    44  41  91 CALM      30.11R
MERRILL        MOCLDY    52  44  73 NW5       30.10R
$$

WIZ013-073-150300-
NORTHEAST WISCONSIN

CITY           SKY/WX    TMP DP  RH WIND       PRES   REMARKS
IRON MOUNTAIN  CLOUDY    53  43  68 NW5       30.06R
MARINETTE      PTCLDY    55  48  76 SW5       30.06S
OCONTO         MOCLDY    54  50  86 SW3       30.08S
$$

WIZ017-030-035>037-045-150300-
CENTRAL WISCONSIN

CITY           SKY/WX    TMP DP  RH WIND       PRES   REMARKS
MEDFORD        MOCLDY    51  42  71 SW3       30.10S
WAUSAU         MOCLDY    55  44  66 W5        30.09R
MOSINEE        CLEAR     54  45  71 W3        30.11R
MARSHFIELD     MOCLDY    54  43  66 NW12      30.10R
WISC RAPIDS    MOCLDY    59  50  72 CALM      30.11R
STEVENS POINT  MOCLDY    56  47  70 CALM      30.11R
WAUPACA        MOCLDY    60  50  70 NW5       30.10S
SHAWANO        MOCLDY    58  50  74 SW3       30.09S
CLINTONVILLE   CLOUDY    55  50  82 SW3       30.09S
$$

WIZ038-039-048-051-150300-
FOX VALLEY

CITY           SKY/WX    TMP DP  RH WIND       PRES   REMARKS
NWS GREEN BAY  MOCLDY    57  49  74 SW6       30.09R
APPLETON       MOCLDY    55  46  71 S9        30.10S
OSHKOSH        CLEAR     57  49  74 S9        30.10S
FOND DU LAC    CLEAR     55  47  74 S7        30.12S
$$

WIZ022-050-052-150300-
EAST CENTRAL WISCONSIN

CITY           SKY/WX    TMP DP  RH WIND       PRES   REMARKS
STURGEON BAY   MOCLDY    54  46  76 S8        30.09R
MANITOWOC      CLOUDY    56  48  74 SW7       30.11S
SHEBOYGAN      CLEAR     52  46  80 S5        30.12S
$$

LMZ563-521-522-541>543-150300-
LAKESHORE

STATION/POSITION TIME  TEMP    WIND        PRES    VSBY  WAVE
                       AIR SEA DIR/SP/G                  HT/PER
                 (UTC) (F)     (DEG/KT/KT) (MB)    (MI)  (FT/S)
SHEBOYGAN LKSHOR 0200   59 51  210/ 11/ 13 1020.4S
KEWAUNEE LKSHORE 0200   58     200/  9/ 11 1017.9F
NORTHPORT PIER   0200   56     180/  4/  8 1018.3S
N MID LAKE BUOY  0200   59 59  220/ 21/ 27 1017.7R         7/ 7
S GREEN BAY BUOY 0200   61     VRB 10/ 12  1019.6R
CHAMBERS ISLAND  0200   57     160/  3/  6 1017.9F
MENOMINEE LKSHOR 0200   59     210/  6/  8 1018.6F
$$



USA.gov is the U.S. government's official web portal to all federal, state and local government web resources and services.